Flag for Turkey Weather past 2 weeks in Samsun, Turkey

Now
48 °F

Broken clouds.


Feels Like: 48 °F
Forecast: 36 / 53 °F
Wind: 2 mph from North

Location: Samsun / Carsamba

Current Time: Mar 4, 2015 at 10:45:36 AM

Latest Report: Mar 4, 2015 at 9:50 AM


Visibility: N/A

Pressure: 30.18 "Hg

Humidity: 62%

Dew point: 36 °F

Location of SamsunLocation

Historic Weather in Samsun — Graph

°F

Samsun temperature yesterday

Maximum temperature yesterday: 59 °F (at 12:50 PM)
Minimum temperature yesterday: 36 °F (at 3:50 AM)
Average temperature yesterday: 46 °F

Past Weeks' High & Low Weather Summary

 TemperatureHumidityPressure
High68 °F (Feb 26, 10:50 AM)100% (Feb 17, 11:02 AM)30.33 "Hg (Feb 17, 11:02 AM)
Low28 °F (Feb 18, 2:50 AM)20% (Feb 23, 11:50 AM)29.77 "Hg (Feb 28, 2:50 AM)
Average45 °F78%30.06 "Hg
* Reported Feb 17 9:50 AM — Mar 4 9:50 AM, Samsun, Weather by CustomWeather, © 2015

Note: Actual official high and low records may vary slightly from our data, if they occured in-between our weather recording intervals... More about our weather records

Advertising

Samsun weather history for previous 24 hours

 ConditionsComfort  
Time TempWeatherWind HumidityBarometerVisibility
9:50 AM
Wed, Mar 4
48 °FBroken clouds.2 mph62%30.18 "HgN/A
8:50 AM46 °FBroken clouds.13 mph71%30.18 "HgN/A
7:50 AM46 °FBroken clouds.17 mph71%30.15 "HgN/A
6:50 AM46 °FBroken clouds.16 mph71%30.12 "HgN/A
5:50 AM46 °FSprinkles. Passing clouds.21 mph71%30.09 "Hg6 mi
4:50 AM46 °FSprinkles. Passing clouds.25 mph82%30.07 "Hg5 mi
3:50 AM46 °FSprinkles. Passing clouds.30 mph87%30.04 "HgN/A
2:50 AM46 °FSprinkles. Passing clouds.14 mph93%30.01 "HgN/A
1:50 AM48 °FPartly cloudy.16 mph87%30.01 "HgN/A
12:50 AM48 °FPartly cloudy.20 mph87%29.98 "HgN/A
11:50 PM
Tue, Mar 3
43 °FPartly cloudy.5 mph93%29.95 "Hg4 mi
10:50 PM43 °FFog.1 mph93%29.95 "Hg2 mi
9:50 PM43 °FPassing clouds.1 mph93%29.95 "Hg4 mi
8:50 PM45 °FPartly cloudy.No wind93%29.95 "HgN/A
7:50 PM46 °FPassing clouds.2 mph93%29.95 "HgN/A
6:50 PM46 °FPassing clouds.8 mph93%29.98 "HgN/A
5:50 PM46 °FPartly cloudy.6 mph93%29.95 "HgN/A
4:50 PM48 °FBroken clouds.5 mph94%29.95 "HgN/A
3:50 PM54 °FBroken clouds.8 mph77%29.95 "HgN/A
2:50 PM57 °FBroken clouds.7 mph67%29.92 "HgN/A
1:50 PM54 °FBroken clouds.7 mph82%29.95 "HgN/A
12:50 PM59 °FBroken clouds.5 mph63%29.92 "HgN/A
11:50 AM55 °FPartly sunny.9 mph72%29.95 "HgN/A
10:50 AM57 °FPartly sunny.5 mph59%29.98 "HgN/A
Weather by CustomWeather, © 2015

See weather overviewHow to use our weather pages